Voltar ao catálogo

GALILEO 28 (224)

AtivoNavegaçãoMEO
NORAD 49810·PAYLOAD·🇪🇺 EU

Lançado Dec 5, 2021 de Guiana Space Centre

Loading…

Próximas Passagens (próximas 24 horas)

TLE

AtualizadoSource: CelesTrak SupGP

Época: Sep 13, 2026, 23:59 UTC

1 49810C 21116B   26256.99979167  .00000000  00000+0  00000+0 0  2565
2 49810  57.1251 339.2751 0003227 217.7853 161.0855  1.70476680    18

Acompanhe GALILEO 28 (224) em tempo real com AllMySat

Download on the App Store